Regional Weather Roundup
Issued by NWS

Home | Current Version | Previous Version | Text Only | Print | Product List | Glossary Off
Versions: 1 2 3 4 5 6 7 8 9 10 11 12 13 14 15 16 17 18 19 20 21 22 23 24 25 26 27 28 29 30 31 32 33 34 35 36 37 38 39 40 41 42 43 44 45 46 47 48 49 50

000
ASUS43 KLSX 250607
RWRMO

WEATHER SUMMARY FOR MISSOURI
NATIONAL WEATHER SERVICE SPRINGFIELD MO
100 AM CDT FRI APR 25 2014

NOTE: "FAIR" INDICATES FEW OR NO CLOUDS BELOW 12,000 FEET WITH NO
       SIGNIFICANT WEATHER AND/OR OBSTRUCTIONS TO VISIBILITY.
       CURRENT SKY AND/OR WEATHER CONDITIONS ARE NOT AVAILABLE FOR
       CHILLICOTHE AND FARMINGTON.

MOZ001>031-035>038-043-044-053-054-250700-
...NORTHERN AND WESTERN MISSOURI...

CITY           SKY/WX    TMP DP  RH WIND       PRES   REMARKS
KANSAS CTY INT FAIR      48  43  82 SW8       29.86R
6HR MIN TEMP:  48; 6HR MAX TEMP:  57;

KANSAS C DTWN  FAIR      51  45  79 SW5       29.87R
6HR MIN TEMP:  51; 6HR MAX TEMP:  59;

LEE`S SUMMIT   FAIR      47  43  86 SW7       29.87R
6HR MIN TEMP:  47; 6HR MAX TEMP:  57; 6HR PCP: TRACE;

ST JOSEPH      FOG       42  41  96 CALM      29.86R VSB 1/4
6HR MIN TEMP:  42; 6HR MAX TEMP:  58;

CHILLICOTHE      N/A     52  45  77 NW6       29.84R
6HR MIN TEMP:  52; 6HR MAX TEMP:  54;

KIRKSVILLE     FAIR      50  46  86 NW9       29.79R
6HR MIN TEMP:  50; 6HR MAX TEMP:  55;


$$
MOZ066>068-077>081-088>096-101>105-250700-
...SOUTHWEST MISSOURI...

CITY           SKY/WX    TMP DP  RH WIND       PRES   REMARKS
SPRINGFIELD    FAIR      51  45  79 NW7       29.88R
6HR MIN TEMP:  51; 6HR MAX TEMP:  59; 6HR PCP:  0.01;

JOPLIN         FAIR      49  44  83 SW5       29.92R
6HR MIN TEMP:  49; 6HR MAX TEMP:  59;


$$
MOZ032>034-039>042-045>050-055>058-069>072-250700-
...CENTRAL MISSOURI...

CITY           SKY/WX    TMP DP  RH WIND       PRES   REMARKS
COLUMBIA       FAIR      51  47  86 NW10      29.79R
6HR MIN TEMP:  51; 6HR MAX TEMP:  58; 6HR PCP: TRACE;

JEFFERSON CITY FAIR      52  48  86 W7        29.81R
6HR MIN TEMP:  52; 6HR MAX TEMP:  59; 6HR PCP: TRACE;

ROLLA          MOCLDY    51  48  89 W13       29.78R
6HR MIN TEMP:  51; 6HR MAX TEMP:  57; 6HR PCP:  0.10;

SEDALIA        FAIR      52  47  83 W10       29.84R
6HR MIN TEMP:  52; 6HR MAX TEMP:  58; 6HR PCP:  0.03;

OSAGE BEACH    FAIR      52  46  82 W7        29.85R

$$
MOZ051-052-059>065-250700-
...EAST CENTRAL MISSOURI...

CITY           SKY/WX    TMP DP  RH WIND       PRES   REMARKS
ST LOUIS INTL  CLOUDY    58  54  86 W13       29.69S
6HR MIN TEMP:  58; 6HR MAX TEMP:  61; 6HR PCP:  0.42;

SPIRIT OF STL  CLOUDY   N/A N/A N/A W16G23    29.70R
                                      6HR PCP:  0.28;

ST CHARLES     CLOUDY    57  53  86 NW16      29.69R
6HR MIN TEMP:  57; 6HR MAX TEMP:  60; 6HR PCP:  0.31;


$$
MOZ072>076-082>087-097>100-106>115-250700-
...SOUTH CENTRAL AND SOUTHEAST MISSOURI...

CITY           SKY/WX    TMP DP  RH WIND       PRES   REMARKS
CAPE GIRARDEAU MOCLDY    58  56  93 W8        29.69S
6HR MIN TEMP:  58; 6HR MAX TEMP:  73; 6HR PCP:  0.52;

FARMINGTON     CLOUDY    57  55  94 NW13      29.73S
6HR MIN TEMP:  55; 6HR MAX TEMP:  64; 6HR PCP:  0.78;

POPLAR BLUFF   FAIR      58  52  80 W7        29.71R
6HR MIN TEMP:  59; 6HR MAX TEMP:  70; 6HR PCP:  0.31;

WEST PLAINS    CLOUDY    55  50  83 W12G17    29.80R
6HR MIN TEMP:  55; 6HR MAX TEMP:  64; 6HR PCP:  0.01;


$$



USA.gov is the U.S. government's official web portal to all federal, state and local government web resources and services.